| time (UTC) | temp C | wind direction | speed KPH | gust KPH | rain 1hr cm | rain 24hr cm | rain mn cm | humidity % | barometer mb |
| 20260509090444 | 12 | 101 | 0.0 | 0.0 | 0.00 | 0.00 | 0.00 | 89 | 1025.9 |
| 20260509085944 | 12 | 101 | 0.0 | 0.0 | 0.00 | 0.00 | 0.00 | 88 | 1025.7 |
| 20260509085444 | 12 | 101 | 0.0 | 0.0 | 0.00 | 0.00 | 0.00 | 88 | 1025.8 |
| 20260509084944 | 12 | 101 | 0.0 | 0.0 | 0.00 | 0.00 | 0.00 | 87 | 1025.6 |
| 20260509084444 | 12 | 101 | 0.0 | 1.6 | 0.00 | 0.00 | 0.00 | 86 | 1025.7 |
| 20260509083944 | 12 | 101 | 0.0 | 1.6 | 0.00 | 0.00 | 0.00 | 87 | 1025.5 |
| 20260509083444 | 12 | 101 | 0.0 | 0.0 | 0.00 | 0.00 | 0.00 | 87 | 1025.4 |
| 20260509082944 | 12 | 101 | 0.0 | 0.0 | 0.00 | 0.00 | 0.00 | 86 | 1025.3 |
| 20260509082444 | 13 | 101 | 0.0 | 0.0 | 0.00 | 0.00 | 0.00 | 86 | 1025.3 |
| 20260509081944 | 13 | 101 | 0.0 | 0.0 | 0.00 | 0.00 | 0.00 | 86 | 1025.1 |
| 20260509081444 | 13 | 101 | 0.0 | 0.0 | 0.00 | 0.00 | 0.00 | 85 | 1025.1 |
| 20260509080944 | 13 | 101 | 0.0 | 0.0 | 0.00 | 0.00 | 0.00 | 85 | 1025.0 |
| 20260509080444 | 13 | 101 | 0.0 | 0.0 | 0.00 | 0.00 | 0.00 | 85 | 1024.8 |
| 20260509075944 | 13 | 101 | 0.0 | 0.0 | 0.00 | 0.00 | 0.00 | 84 | 1024.8 |
| 20260509075444 | 13 | 101 | 0.0 | 0.0 | 0.00 | 0.00 | 0.00 | 82 | 1024.7 |
| 20260509074944 | 13 | 101 | 0.0 | 0.0 | 0.00 | 0.00 | 0.00 | 81 | 1024.8 |
| 20260509074444 | 14 | 101 | 0.0 | 0.0 | 0.00 | 0.00 | 0.00 | 81 | 1024.6 |
| 20260509073944 | 14 | 101 | 0.0 | 1.6 | 0.00 | 0.00 | 0.00 | 81 | 1024.6 |
| 20260509073444 | 15 | 101 | 0.0 | 0.0 | 0.00 | 0.00 | 0.00 | 79 | 1024.5 |
| 20260509072944 | 15 | 101 | 0.0 | 0.0 | 0.00 | 0.00 | 0.00 | 79 | 1024.4 |
| 20260509072444 | 15 | 101 | 1.6 | 1.6 | 0.00 | 0.00 | 0.00 | 77 | 1024.5 |
| 20260509071944 | 15 | 101 | 0.0 | 1.6 | 0.00 | 0.00 | 0.00 | 77 | 1024.3 |
| 20260509071444 | 15 | 101 | 0.0 | 3.2 | 0.00 | 0.00 | 0.00 | 75 | 1024.3 |
| 20260509070944 | 16 | 101 | 1.6 | 1.6 | 0.00 | 0.00 | 0.00 | 74 | 1024.3 |
| 20260509070444 | 16 | 101 | 1.6 | 4.8 | 0.00 | 0.00 | 0.00 | 74 | 1024.2 |
| 20260509065944 | 16 | 100 | 0.0 | 11.3 | 0.00 | 0.00 | 0.00 | 73 | 1024.0 |
| 20260509065444 | 17 | 115 | 0.0 | 0.0 | 0.00 | 0.00 | 0.00 | 72 | 1024.0 |
| 20260509064944 | 17 | 115 | 1.6 | 1.6 | 0.00 | 0.00 | 0.00 | 72 | 1024.0 |
| 20260509064444 | 17 | 115 | 1.6 | 3.2 | 0.00 | 0.00 | 0.00 | 71 | 1023.9 |
| 20260509063944 | 18 | 115 | 1.6 | 3.2 | 0.00 | 0.00 | 0.00 | 68 | 1023.9 |
| 20260509063444 | 18 | 115 | 1.6 | 3.2 | 0.00 | 0.00 | 0.00 | 66 | 1023.8 |
| 20260509062944 | 19 | 115 | 1.6 | 3.2 | 0.00 | 0.00 | 0.00 | 64 | 1023.7 |
| 20260509062444 | 19 | 115 | 1.6 | 3.2 | 0.00 | 0.00 | 0.00 | 62 | 1023.7 |
| 20260509061944 | 20 | 115 | 0.0 | 3.2 | 0.00 | 0.00 | 0.00 | 58 | 1023.6 |
| 20260509061444 | 20 | 116 | 0.0 | 0.0 | 0.00 | 0.00 | 0.00 | 58 | 1023.5 |
| 20260509060944 | 20 | 119 | 0.0 | 0.0 | 0.00 | 0.00 | 0.00 | 60 | 1023.5 |
| 20260509060444 | 20 | 119 | 0.0 | 0.0 | 0.00 | 0.00 | 0.00 | 59 | 1023.4 |
| 20260509055944 | 20 | 119 | 0.0 | 0.0 | 0.00 | 0.00 | 0.00 | 58 | 1023.3 |
| 20260509055444 | 20 | 119 | 0.0 | 3.2 | 0.00 | 0.00 | 0.00 | 57 | 1023.4 |
| 20260509054944 | 20 | 119 | 0.0 | 0.0 | 0.00 | 0.00 | 0.00 | 56 | 1023.2 |
| 20260509054444 | 20 | 119 | 1.6 | 3.2 | 0.00 | 0.00 | 0.00 | 57 | 1023.3 |
| 20260509053945 | 20 | 119 | 1.6 | 4.8 | 0.00 | 0.00 | 0.00 | 55 | 1023.3 |
| 20260509053444 | 20 | 119 | 1.6 | 4.8 | 0.00 | 0.00 | 0.00 | 55 | 1023.2 |
| 20260509052944 | 20 | 119 | 1.6 | 3.2 | 0.00 | 0.00 | 0.00 | 55 | 1023.1 |
| 20260509052444 | 20 | 113 | 3.2 | 4.8 | 0.00 | 0.00 | 0.00 | 52 | 1023.2 |
| 20260509051944 | 20 | 113 | 4.8 | 6.4 | 0.00 | 0.00 | 0.00 | 52 | 1023.2 |
| 20260509051444 | 21 | 126 | 4.8 | 6.4 | 0.00 | 0.00 | 0.00 | 54 | 1023.1 |
| 20260509050944 | 21 | 126 | 3.2 | 8.0 | 0.00 | 0.00 | 0.00 | 54 | 1023.0 |
| 20260509050444 | 21 | 149 | 3.2 | 9.7 | 0.00 | 0.00 | 0.00 | 53 | 1023.1 |
| 20260509045944 | 21 | 157 | 1.6 | 6.4 | 0.00 | 0.00 | 0.00 | 52 | 1023.2 |
| 20260509045444 | 21 | 163 | 3.2 | 6.4 | 0.00 | 0.00 | 0.00 | 51 | 1023.1 |
| 20260509044944 | 21 | 160 | 1.6 | 6.4 | 0.00 | 0.00 | 0.00 | 52 | 1023.1 |
| 20260509044444 | 22 | 173 | 1.6 | 4.8 | 0.00 | 0.00 | 0.00 | 49 | 1023.2 |
| 20260509043944 | 22 | 173 | 1.6 | 4.8 | 0.00 | 0.00 | 0.00 | 49 | 1023.2 |
| 20260509043444 | 22 | 173 | 3.2 | 8.0 | 0.00 | 0.00 | 0.00 | 50 | 1023.2 |
| 20260509042944 | 22 | 157 | 3.2 | 6.4 | 0.00 | 0.00 | 0.00 | 49 | 1023.3 |
| 20260509042444 | 22 | 160 | 1.6 | 6.4 | 0.00 | 0.00 | 0.00 | 52 | 1023.4 |
| 20260509041944 | 22 | 161 | 1.6 | 8.0 | 0.00 | 0.00 | 0.00 | 51 | 1023.3 |
| 20260509041444 | 22 | 313 | 3.2 | 3.2 | 0.00 | 0.00 | 0.00 | 51 | 1023.3 |
| 20260509040944 | 22 | 309 | 4.8 | 11.3 | 0.00 | 0.00 | 0.00 | 49 | 1023.3 |
| 20260509040444 | 22 | 260 | 1.6 | 11.3 | 0.00 | 0.00 | 0.00 | 49 | 1023.4 |
| 20260509035944 | 22 | 214 | 3.2 | 3.2 | 0.00 | 0.00 | 0.00 | 49 | 1023.4 |
| 20260509035444 | 22 | 246 | 3.2 | 6.4 | 0.00 | 0.00 | 0.00 | 49 | 1023.5 |
| 20260509034944 | 22 | 245 | 3.2 | 4.8 | 0.00 | 0.00 | 0.00 | 51 | 1023.5 |
| 20260509034444 | 22 | 238 | 3.2 | 9.7 | 0.00 | 0.00 | 0.00 | 49 | 1023.5 |
| 20260509033944 | 22 | 220 | 3.2 | 4.8 | 0.00 | 0.00 | 0.00 | 50 | 1023.5 |
| 20260509033444 | 22 | 211 | 3.2 | 9.7 | 0.00 | 0.00 | 0.00 | 50 | 1023.6 |
| 20260509032944 | 22 | 186 | 3.2 | 6.4 | 0.00 | 0.00 | 0.00 | 54 | 1023.6 |
| 20260509032444 | 21 | 207 | 4.8 | 8.0 | 0.00 | 0.00 | 0.00 | 52 | 1023.6 |
| 20260509031944 | 21 | 205 | 4.8 | 12.9 | 0.00 | 0.00 | 0.00 | 50 | 1023.5 |
| 20260509031444 | 22 | 198 | 3.2 | 8.0 | 0.00 | 0.00 | 0.00 | 51 | 1023.7 |
| 20260509030944 | 21 | 239 | 3.2 | 6.4 | 0.00 | 0.00 | 0.00 | 51 | 1023.7 |
| 20260509030444 | 21 | 95 | 4.8 | 9.7 | 0.00 | 0.00 | 0.00 | 50 | 1023.7 |
| 20260509025944 | 21 | 107 | 4.8 | 9.7 | 0.00 | 0.00 | 0.00 | 53 | 1023.8 |
| 20260509025444 | 22 | 97 | 3.2 | 11.3 | 0.00 | 0.00 | 0.00 | 51 | 1023.7 |
| 20260509024944 | 22 | 198 | 1.6 | 6.4 | 0.00 | 0.00 | 0.00 | 50 | 1024.0 |
| 20260509024444 | 22 | 202 | 3.2 | 8.0 | 0.00 | 0.00 | 0.00 | 52 | 1023.9 |
| 20260509023944 | 21 | 176 | 4.8 | 9.7 | 0.00 | 0.00 | 0.00 | 55 | 1024.1 |
| 20260509023444 | 21 | 88 | 3.2 | 11.3 | 0.00 | 0.00 | 0.00 | 55 | 1024.1 |
| 20260509022944 | 21 | 101 | 3.2 | 11.3 | 0.00 | 0.00 | 0.00 | 54 | 1024.3 |
| 20260509022444 | 21 | 212 | 1.6 | 8.0 | 0.00 | 0.00 | 0.00 | 52 | 1024.4 |
| 20260509021944 | 21 | 205 | 1.6 | 3.2 | 0.00 | 0.00 | 0.00 | 53 | 1024.5 |
| 20260509021444 | 21 | 205 | 1.6 | 4.8 | 0.00 | 0.00 | 0.00 | 56 | 1024.6 |
| 20260509020944 | 21 | 127 | 1.6 | 8.0 | 0.00 | 0.00 | 0.00 | 55 | 1024.5 |
| 20260509020444 | 21 | 153 | 1.6 | 4.8 | 0.00 | 0.00 | 0.00 | 55 | 1024.6 |
| 20260509015944 | 20 | 140 | 3.2 | 4.8 | 0.00 | 0.00 | 0.00 | 57 | 1024.6 |
| 20260509015444 | 20 | 132 | 3.2 | 6.4 | 0.00 | 0.00 | 0.00 | 56 | 1024.8 |
| 20260509014944 | 20 | 215 | 1.6 | 6.4 | 0.00 | 0.00 | 0.00 | 61 | 1024.7 |
| 20260509014445 | 20 | 216 | 3.2 | 4.8 | 0.00 | 0.00 | 0.00 | 58 | 1024.8 |
| 20260509013945 | 20 | 215 | 3.2 | 11.3 | 0.00 | 0.00 | 0.00 | 58 | 1024.8 |
| 20260509013445 | 20 | 240 | 1.6 | 8.0 | 0.00 | 0.00 | 0.00 | 60 | 1025.0 |
| 20260509012945 | 19 | 150 | 3.2 | 4.8 | 0.00 | 0.00 | 0.00 | 61 | 1025.0 |
| 20260509012445 | 18 | 157 | 3.2 | 6.4 | 0.00 | 0.00 | 0.00 | 61 | 1025.1 |
| 20260509011945 | 18 | 163 | 3.2 | 8.0 | 0.00 | 0.00 | 0.00 | 65 | 1025.1 |
| 20260509011445 | 17 | 163 | 1.6 | 8.0 | 0.00 | 0.00 | 0.00 | 64 | 1025.1 |
| 20260509010945 | 17 | 207 | 1.6 | 6.4 | 0.00 | 0.00 | 0.00 | 68 | 1025.1 |
| 20260509010445 | 16 | 266 | 1.6 | 6.4 | 0.00 | 0.00 | 0.00 | 70 | 1025.2 |
| 20260509005945 | 16 | 285 | 1.6 | 3.2 | 0.00 | 0.00 | 0.00 | 72 | 1025.5 |
| 20260509005445 | 16 | 308 | 3.2 | 6.4 | 0.00 | 0.00 | 0.00 | 72 | 1025.7 |
| 20260509004945 | 16 | 298 | 1.6 | 6.4 | 0.00 | 0.00 | 0.00 | 73 | 1025.8 |
| 20260509004445 | 16 | 290 | 1.6 | 4.8 | 0.00 | 0.00 | 0.00 | 73 | 1025.9 |
| 20260509003945 | 15 | 290 | 1.6 | 4.8 | 0.00 | 0.00 | 0.00 | 73 | 1025.7 |
| 20260509003445 | 15 | 263 | 0.0 | 6.4 | 0.00 | 0.00 | 0.00 | 75 | 1025.9 |
| 20260509002945 | 15 | 271 | 0.0 | 0.0 | 0.00 | 0.00 | 0.00 | 75 | 1025.9 |
| 20260509002445 | 15 | 271 | 0.0 | 0.0 | 0.00 | 0.00 | 0.00 | 77 | 1025.9 |
| 20260509001945 | 15 | 265 | 0.0 | 0.0 | 0.00 | 0.00 | 0.00 | 77 | 1025.9 |
| 20260509001445 | 14 | 265 | 0.0 | 0.0 | 0.00 | 0.00 | 0.00 | 79 | 1026.0 |
| 20260509000945 | 14 | 259 | 0.0 | 0.0 | 0.00 | 0.00 | 0.00 | 79 | 1026.2 |
| 20260509000447 | 14 | 259 | 0.0 | 0.0 | 0.00 | 0.00 | 0.00 | 79 | 1026.1 |
| 20260508235945 | 13 | 259 | 0.0 | 0.0 | 0.00 | 0.00 | 0.00 | 80 | 1026.1 |
| 20260508235445 | 13 | 240 | 0.0 | 0.0 | 0.00 | 0.00 | 0.00 | 82 | 1026.0 |
| 20260508234945 | 13 | 238 | 0.0 | 0.0 | 0.00 | 0.00 | 0.00 | 82 | 1026.1 |
| 20260508234445 | 13 | 238 | 0.0 | 0.0 | 0.00 | 0.00 | 0.00 | 83 | 1026.1 |
| 20260508233945 | 13 | 238 | 0.0 | 0.0 | 0.00 | 0.00 | 0.00 | 84 | 1026.0 |
| 20260508233445 | 12 | 238 | 0.0 | 0.0 | 0.00 | 0.00 | 0.00 | 86 | 1026.1 |
| 20260508232945 | 12 | 238 | 0.0 | 0.0 | 0.00 | 0.00 | 0.00 | 87 | 1026.0 |
| 20260508232445 | 12 | 238 | 0.0 | 0.0 | 0.00 | 0.00 | 0.00 | 88 | 1026.1 |
| 20260508231945 | 12 | 238 | 0.0 | 0.0 | 0.00 | 0.00 | 0.00 | 88 | 1026.0 |
| 20260508231445 | 11 | 238 | 0.0 | 0.0 | 0.00 | 0.00 | 0.00 | 89 | 1026.0 |
| 20260508230945 | 11 | 238 | 0.0 | 3.2 | 0.00 | 0.00 | 0.00 | 89 | 1026.1 |
| 20260508230445 | 11 | 238 | 0.0 | 0.0 | 0.00 | 0.00 | 0.00 | 91 | 1026.1 |
| 20260508225945 | 11 | 238 | 0.0 | 0.0 | 0.00 | 0.00 | 0.00 | 92 | 1026.0 |
| 20260508225445 | 10 | 238 | 0.0 | 0.0 | 0.00 | 0.00 | 0.00 | 93 | 1026.0 |
| 20260508224945 | 10 | 238 | 0.0 | 0.0 | 0.00 | 0.00 | 0.00 | 95 | 1026.1 |
| 20260508224445 | 10 | 238 | 0.0 | 0.0 | 0.00 | 0.00 | 0.00 | 97 | 1026.0 |
| 20260508223945 | 10 | 238 | 0.0 | 0.0 | 0.00 | 0.00 | 0.00 | 97 | 1026.1 |
| 20260508223445 | 9 | 238 | 0.0 | 0.0 | 0.00 | 0.00 | 0.00 | 97 | 1026.0 |
| 20260508222945 | 9 | 238 | 0.0 | 0.0 | 0.00 | 0.00 | 0.00 | 98 | 1025.9 |
| 20260508222445 | 8 | 238 | 0.0 | 0.0 | 0.00 | 0.00 | 0.00 | 98 | 1025.9 |
| 20260508221945 | 8 | 238 | 0.0 | 0.0 | 0.00 | 0.00 | 0.00 | 98 | 1025.9 |
| 20260508221445 | 8 | 238 | 0.0 | 0.0 | 0.00 | 0.00 | 0.00 | 99 | 1025.9 |
| 20260508220945 | 7 | 238 | 0.0 | 0.0 | 0.00 | 0.00 | 0.00 | 99 | 1025.9 |
| 20260508220445 | 7 | 238 | 0.0 | 0.0 | 0.00 | 0.00 | 0.00 | 99 | 1025.6 |
| 20260508215945 | 6 | 238 | 0.0 | 0.0 | 0.00 | 0.00 | 0.00 | 99 | 1025.7 |
| 20260508215445 | 5 | 238 | 0.0 | 0.0 | 0.00 | 0.00 | 0.00 | 98 | 1025.7 |
| 20260508214945 | 5 | 238 | 0.0 | 0.0 | 0.00 | 0.00 | 0.00 | 97 | 1025.6 |
| 20260508214445 | 5 | 238 | 0.0 | 0.0 | 0.00 | 0.00 | 0.00 | 98 | 1025.7 |
| 20260508213945 | 4 | 238 | 0.0 | 0.0 | 0.00 | 0.00 | 0.00 | 97 | 1025.6 |
| 20260508213445 | 4 | 238 | 0.0 | 0.0 | 0.00 | 0.00 | 0.00 | 97 | 1025.4 |
| 20260508212945 | 4 | 238 | 0.0 | 0.0 | 0.00 | 0.00 | 0.00 | 97 | 1025.5 |
| 20260508212445 | 4 | 238 | 0.0 | 0.0 | 0.00 | 0.00 | 0.00 | 97 | 1025.4 |
| 20260508211945 | 4 | 238 | 0.0 | 0.0 | 0.00 | 0.00 | 0.00 | 97 | 1025.3 |
| 20260508211445 | 4 | 238 | 0.0 | 0.0 | 0.00 | 0.00 | 0.00 | 97 | 1025.3 |
| 20260508210945 | 3 | 238 | 0.0 | 0.0 | 0.00 | 0.00 | 0.00 | 97 | 1025.3 |
| 20260508210445 | 3 | 238 | 0.0 | 0.0 | 0.00 | 0.00 | 0.00 | 97 | 1025.3 |
| 20260508205945 | 3 | 238 | 0.0 | 0.0 | 0.00 | 0.00 | 0.00 | 97 | 1025.3 |
| 20260508205445 | 3 | 238 | 0.0 | 0.0 | 0.00 | 0.00 | 0.00 | 97 | 1025.1 |
| 20260508204945 | 3 | 238 | 0.0 | 0.0 | 0.00 | 0.00 | 0.00 | 97 | 1025.2 |
| 20260508204445 | 3 | 238 | 0.0 | 0.0 | 0.00 | 0.00 | 0.00 | 97 | 1024.9 |
| 20260508203945 | 3 | 238 | 0.0 | 0.0 | 0.00 | 0.00 | 0.00 | 97 | 1024.9 |
| 20260508203445 | 3 | 238 | 0.0 | 0.0 | 0.00 | 0.00 | 0.00 | 97 | 1024.8 |
| 20260508202945 | 3 | 238 | 0.0 | 0.0 | 0.00 | 0.00 | 0.00 | 97 | 1025.1 |
| 20260508202445 | 3 | 238 | 0.0 | 0.0 | 0.00 | 0.00 | 0.00 | 97 | 1024.8 |
| 20260508201945 | 4 | 238 | 0.0 | 0.0 | 0.00 | 0.00 | 0.00 | 97 | 1024.8 |
| 20260508201445 | 4 | 238 | 0.0 | 0.0 | 0.00 | 0.00 | 0.00 | 97 | 1024.6 |
| 20260508200945 | 3 | 238 | 0.0 | 0.0 | 0.00 | 0.00 | 0.00 | 97 | 1024.7 |
| 20260508200445 | 4 | 238 | 0.0 | 0.0 | 0.00 | 0.00 | 0.00 | 97 | 1024.5 |
| 20260508195945 | 4 | 238 | 0.0 | 0.0 | 0.00 | 0.00 | 0.00 | 97 | 1024.5 |
| 20260508195445 | 4 | 238 | 0.0 | 0.0 | 0.00 | 0.00 | 0.00 | 97 | 1024.3 |
| 20260508194945 | 4 | 238 | 0.0 | 0.0 | 0.00 | 0.00 | 0.00 | 97 | 1024.4 |
| 20260508194445 | 4 | 238 | 0.0 | 0.0 | 0.00 | 0.00 | 0.00 | 96 | 1024.4 |
| 20260508193945 | 4 | 237 | 0.0 | 0.0 | 0.00 | 0.00 | 0.00 | 97 | 1024.2 |
| 20260508193445 | 4 | 238 | 0.0 | 0.0 | 0.00 | 0.00 | 0.00 | 97 | 1024.0 |
| 20260508192945 | 4 | 237 | 0.0 | 0.0 | 0.00 | 0.00 | 0.00 | 97 | 1024.0 |
| 20260508192445 | 4 | 237 | 0.0 | 0.0 | 0.00 | 0.00 | 0.00 | 97 | 1023.9 |
| 20260508191945 | 4 | 238 | 0.0 | 0.0 | 0.00 | 0.00 | 0.00 | 97 | 1023.8 |
| 20260508191445 | 4 | 237 | 0.0 | 0.0 | 0.00 | 0.00 | 0.00 | 96 | 1023.8 |
| 20260508190945 | 4 | 238 | 0.0 | 0.0 | 0.00 | 0.00 | 0.00 | 96 | 1023.8 |
| 20260508190445 | 4 | 238 | 0.0 | 0.0 | 0.00 | 0.00 | 0.00 | 96 | 1023.6 |
| 20260508185945 | 4 | 238 | 0.0 | 0.0 | 0.00 | 0.00 | 0.00 | 96 | 1023.6 |
| 20260508185445 | 5 | 238 | 0.0 | 0.0 | 0.00 | 0.00 | 0.00 | 96 | 1023.6 |
| 20260508184945 | 5 | 238 | 0.0 | 0.0 | 0.00 | 0.00 | 0.00 | 96 | 1023.4 |
| 20260508184445 | 5 | 237 | 0.0 | 0.0 | 0.00 | 0.00 | 0.00 | 96 | 1023.4 |
| 20260508183945 | 5 | 237 | 0.0 | 0.0 | 0.00 | 0.00 | 0.00 | 96 | 1023.5 |
| 20260508183445 | 5 | 237 | 0.0 | 0.0 | 0.00 | 0.00 | 0.00 | 96 | 1023.5 |
| 20260508182945 | 5 | 238 | 0.0 | 0.0 | 0.00 | 0.00 | 0.00 | 96 | 1023.3 |
| 20260508182445 | 5 | 238 | 0.0 | 0.0 | 0.00 | 0.00 | 0.00 | 96 | 1023.3 |
| 20260508181945 | 5 | 237 | 0.0 | 0.0 | 0.00 | 0.00 | 0.00 | 96 | 1023.4 |
| 20260508181445 | 5 | 237 | 0.0 | 0.0 | 0.00 | 0.00 | 0.00 | 96 | 1023.3 |
| 20260508180945 | 5 | 238 | 0.0 | 0.0 | 0.00 | 0.00 | 0.00 | 96 | 1023.1 |
| 20260508180445 | 5 | 238 | 0.0 | 0.0 | 0.00 | 0.00 | 0.00 | 96 | 1023.2 |
| 20260508175945 | 5 | 238 | 0.0 | 0.0 | 0.00 | 0.00 | 0.00 | 96 | 1023.0 |
| 20260508175445 | 5 | 238 | 0.0 | 0.0 | 0.00 | 0.00 | 0.00 | 96 | 1022.9 |
| 20260508174945 | 5 | 238 | 0.0 | 0.0 | 0.00 | 0.00 | 0.00 | 96 | 1022.9 |
| 20260508174445 | 5 | 238 | 0.0 | 0.0 | 0.00 | 0.00 | 0.00 | 96 | 1022.9 |
| 20260508173945 | 5 | 238 | 0.0 | 0.0 | 0.00 | 0.00 | 0.00 | 96 | 1022.9 |
| 20260508173445 | 5 | 238 | 0.0 | 0.0 | 0.00 | 0.00 | 0.00 | 96 | 1023.0 |
| 20260508172945 | 5 | 238 | 0.0 | 0.0 | 0.00 | 0.00 | 0.00 | 96 | 1022.9 |
| 20260508172445 | 5 | 238 | 0.0 | 0.0 | 0.00 | 0.00 | 0.00 | 96 | 1022.9 |
| 20260508171945 | 5 | 238 | 0.0 | 0.0 | 0.00 | 0.00 | 0.00 | 96 | 1023.0 |
| 20260508171445 | 5 | 237 | 0.0 | 0.0 | 0.00 | 0.00 | 0.00 | 96 | 1022.9 |
| 20260508170945 | 5 | 238 | 0.0 | 0.0 | 0.00 | 0.00 | 0.00 | 96 | 1023.0 |
| 20260508170445 | 5 | 238 | 0.0 | 0.0 | 0.00 | 0.00 | 0.00 | 96 | 1023.0 |
| 20260508165945 | 5 | 238 | 0.0 | 0.0 | 0.00 | 0.00 | 0.00 | 96 | 1022.9 |
| 20260508165445 | 5 | 237 | 0.0 | 0.0 | 0.00 | 0.00 | 0.00 | 96 | 1023.1 |
| 20260508164945 | 5 | 238 | 0.0 | 0.0 | 0.00 | 0.00 | 0.00 | 96 | 1023.1 |
| 20260508164445 | 5 | 238 | 0.0 | 0.0 | 0.00 | 0.00 | 0.00 | 96 | 1023.0 |
| 20260508163945 | 5 | 237 | 0.0 | 0.0 | 0.00 | 0.00 | 0.00 | 95 | 1023.1 |
| 20260508163446 | 5 | 238 | 0.0 | 0.0 | 0.00 | 0.00 | 0.00 | 95 | 1023.1 |
| 20260508162946 | 5 | 238 | 0.0 | 0.0 | 0.00 | 0.00 | 0.00 | 96 | 1023.0 |
| 20260508162446 | 5 | 237 | 0.0 | 0.0 | 0.00 | 0.00 | 0.00 | 96 | 1022.9 |
| 20260508161946 | 5 | 237 | 0.0 | 0.0 | 0.00 | 0.00 | 0.00 | 96 | 1023.0 |
| 20260508161446 | 5 | 237 | 0.0 | 0.0 | 0.00 | 0.00 | 0.00 | 96 | 1022.9 |
| 20260508160946 | 5 | 238 | 0.0 | 0.0 | 0.00 | 0.00 | 0.00 | 95 | 1022.9 |
| 20260508160446 | 5 | 238 | 0.0 | 0.0 | 0.00 | 0.00 | 0.00 | 95 | 1022.9 |
| 20260508155946 | 5 | 238 | 0.0 | 0.0 | 0.00 | 0.00 | 0.00 | 95 | 1022.9 |
| 20260508155446 | 6 | 237 | 0.0 | 0.0 | 0.00 | 0.00 | 0.00 | 95 | 1023.0 |
| 20260508154946 | 6 | 237 | 0.0 | 0.0 | 0.00 | 0.00 | 0.00 | 95 | 1022.9 |
| 20260508154446 | 6 | 238 | 0.0 | 0.0 | 0.00 | 0.00 | 0.00 | 95 | 1022.9 |
| 20260508153946 | 6 | 238 | 0.0 | 0.0 | 0.00 | 0.00 | 0.00 | 95 | 1022.9 |
| 20260508153446 | 6 | 238 | 0.0 | 0.0 | 0.00 | 0.00 | 0.00 | 95 | 1022.9 |
| 20260508152946 | 6 | 238 | 0.0 | 0.0 | 0.00 | 0.00 | 0.00 | 95 | 1022.9 |
| 20260508152446 | 6 | 238 | 0.0 | 0.0 | 0.00 | 0.00 | 0.00 | 95 | 1022.8 |
| 20260508151946 | 6 | 238 | 0.0 | 0.0 | 0.00 | 0.00 | 0.00 | 95 | 1022.9 |
| 20260508151446 | 6 | 238 | 0.0 | 0.0 | 0.00 | 0.00 | 0.00 | 95 | 1022.8 |
| 20260508150946 | 6 | 237 | 0.0 | 0.0 | 0.00 | 0.00 | 0.00 | 95 | 1022.9 |
| 20260508150446 | 6 | 238 | 0.0 | 0.0 | 0.00 | 0.00 | 0.00 | 95 | 1022.9 |
| 20260508145946 | 6 | 238 | 0.0 | 0.0 | 0.00 | 0.00 | 0.00 | 95 | 1023.0 |
| 20260508145446 | 6 | 237 | 0.0 | 0.0 | 0.00 | 0.00 | 0.00 | 95 | 1022.9 |
| 20260508144946 | 6 | 238 | 0.0 | 0.0 | 0.00 | 0.00 | 0.00 | 95 | 1022.8 |
| 20260508144446 | 6 | 238 | 0.0 | 0.0 | 0.00 | 0.00 | 0.00 | 95 | 1022.9 |
| 20260508143946 | 6 | 238 | 0.0 | 0.0 | 0.00 | 0.00 | 0.00 | 95 | 1022.9 |
| 20260508143446 | 6 | 238 | 0.0 | 3.2 | 0.00 | 0.00 | 0.00 | 95 | 1022.9 |
| 20260508142946 | 6 | 238 | 0.0 | 0.0 | 0.00 | 0.00 | 0.00 | 95 | 1022.8 |
| 20260508142446 | 6 | 238 | 0.0 | 0.0 | 0.00 | 0.00 | 0.00 | 95 | 1022.8 |
| 20260508141946 | 6 | 238 | 0.0 | 0.0 | 0.00 | 0.00 | 0.00 | 95 | 1022.8 |
| 20260508141446 | 6 | 238 | 0.0 | 0.0 | 0.00 | 0.00 | 0.00 | 95 | 1022.9 |
| 20260508140946 | 6 | 238 | 0.0 | 0.0 | 0.00 | 0.00 | 0.00 | 94 | 1022.8 |
| 20260508140446 | 6 | 238 | 0.0 | 0.0 | 0.00 | 0.00 | 0.00 | 94 | 1022.8 |
| 20260508135946 | 6 | 238 | 0.0 | 0.0 | 0.00 | 0.00 | 0.00 | 94 | 1022.8 |
| 20260508135446 | 6 | 238 | 0.0 | 0.0 | 0.00 | 0.00 | 0.00 | 94 | 1022.8 |
| 20260508134946 | 6 | 238 | 0.0 | 0.0 | 0.00 | 0.00 | 0.00 | 94 | 1022.8 |
| 20260508134446 | 6 | 238 | 0.0 | 0.0 | 0.00 | 0.00 | 0.00 | 94 | 1022.9 |
| 20260508133946 | 6 | 238 | 0.0 | 0.0 | 0.00 | 0.00 | 0.00 | 94 | 1022.8 |
| 20260508133446 | 6 | 238 | 0.0 | 0.0 | 0.00 | 0.00 | 0.00 | 94 | 1022.8 |
| 20260508132946 | 6 | 238 | 0.0 | 0.0 | 0.00 | 0.00 | 0.00 | 94 | 1022.8 |
| 20260508132446 | 6 | 238 | 0.0 | 0.0 | 0.00 | 0.00 | 0.00 | 93 | 1022.8 |
| 20260508131946 | 6 | 238 | 0.0 | 0.0 | 0.00 | 0.00 | 0.00 | 93 | 1022.8 |
| 20260508131446 | 7 | 238 | 0.0 | 0.0 | 0.00 | 0.00 | 0.00 | 93 | 1022.8 |
| 20260508130946 | 7 | 238 | 0.0 | 0.0 | 0.00 | 0.00 | 0.00 | 93 | 1022.8 |
| 20260508130446 | 7 | 238 | 0.0 | 0.0 | 0.00 | 0.00 | 0.00 | 93 | 1022.8 |
| 20260508125946 | 7 | 238 | 0.0 | 0.0 | 0.00 | 0.00 | 0.00 | 93 | 1022.8 |
| 20260508125446 | 7 | 238 | 0.0 | 0.0 | 0.00 | 0.00 | 0.00 | 93 | 1022.9 |
| 20260508124946 | 7 | 238 | 0.0 | 0.0 | 0.00 | 0.00 | 0.00 | 92 | 1022.9 |
| 20260508124446 | 7 | 238 | 0.0 | 0.0 | 0.00 | 0.00 | 0.00 | 92 | 1023.0 |
| 20260508123946 | 7 | 238 | 1.6 | 3.2 | 0.00 | 0.00 | 0.00 | 92 | 1022.9 |
| 20260508123446 | 7 | 238 | 0.0 | 3.2 | 0.00 | 0.00 | 0.00 | 92 | 1022.7 |
| 20260508122946 | 7 | 238 | 0.0 | 1.6 | 0.00 | 0.00 | 0.00 | 92 | 1022.8 |
| 20260508122446 | 7 | 238 | 0.0 | 1.6 | 0.00 | 0.00 | 0.00 | 91 | 1022.9 |
| 20260508121946 | 7 | 238 | 0.0 | 0.0 | 0.00 | 0.00 | 0.00 | 91 | 1022.9 |
| 20260508121446 | 7 | 238 | 0.0 | 0.0 | 0.00 | 0.00 | 0.00 | 91 | 1022.9 |
| 20260508120946 | 7 | 238 | 0.0 | 0.0 | 0.00 | 0.00 | 0.00 | 90 | 1023.0 |
| 20260508120446 | 7 | 238 | 0.0 | 0.0 | 0.00 | 0.00 | 0.00 | 90 | 1022.9 |
| 20260508115946 | 7 | 238 | 0.0 | 0.0 | 0.00 | 0.00 | 0.00 | 90 | 1022.8 |
| 20260508115446 | 7 | 238 | 0.0 | 0.0 | 0.00 | 0.00 | 0.00 | 90 | 1022.8 |
| 20260508114946 | 7 | 238 | 0.0 | 0.0 | 0.00 | 0.00 | 0.00 | 90 | 1022.7 |
| 20260508114446 | 8 | 238 | 1.6 | 1.6 | 0.00 | 0.00 | 0.00 | 90 | 1022.7 |
| 20260508113946 | 8 | 238 | 1.6 | 3.2 | 0.00 | 0.00 | 0.00 | 90 | 1022.8 |
| 20260508113446 | 8 | 238 | 1.6 | 3.2 | 0.00 | 0.00 | 0.00 | 90 | 1022.6 |
| 20260508112946 | 8 | 238 | 0.0 | 1.6 | 0.00 | 0.00 | 0.00 | 89 | 1022.4 |
| 20260508112446 | 8 | 238 | 0.0 | 0.0 | 0.00 | 0.00 | 0.00 | 88 | 1022.3 |
| 20260508111946 | 8 | 238 | 0.0 | 0.0 | 0.00 | 0.00 | 0.00 | 87 | 1022.2 |
| 20260508111446 | 8 | 238 | 0.0 | 1.6 | 0.00 | 0.00 | 0.00 | 87 | 1022.2 |
| 20260508110946 | 8 | 238 | 0.0 | 1.6 | 0.00 | 0.00 | 0.00 | 88 | 1022.4 |
| 20260508110446 | 8 | 238 | 0.0 | 0.0 | 0.00 | 0.00 | 0.00 | 87 | 1022.2 |
| 20260508105946 | 8 | 238 | 0.0 | 0.0 | 0.00 | 0.00 | 0.00 | 87 | 1022.3 |
| 20260508105446 | 8 | 238 | 0.0 | 1.6 | 0.00 | 0.00 | 0.00 | 87 | 1022.3 |
| 20260508104946 | 9 | 238 | 1.6 | 1.6 | 0.00 | 0.00 | 0.00 | 86 | 1022.2 |
| 20260508104446 | 9 | 238 | 1.6 | 1.6 | 0.00 | 0.00 | 0.00 | 86 | 1022.2 |
| 20260508103946 | 9 | 238 | 0.0 | 1.6 | 0.00 | 0.00 | 0.00 | 86 | 1022.2 |
| 20260508103446 | 9 | 238 | 0.0 | 0.0 | 0.00 | 0.00 | 0.00 | 85 | 1022.1 |
| 20260508102946 | 9 | 238 | 0.0 | 0.0 | 0.00 | 0.00 | 0.00 | 84 | 1021.9 |
| 20260508102446 | 10 | 238 | 0.0 | 0.0 | 0.00 | 0.00 | 0.00 | 84 | 1021.9 |
| 20260508101946 | 10 | 238 | 1.6 | 0.0 | 0.00 | 0.00 | 0.00 | 84 | 1022.0 |
| 20260508101446 | 10 | 238 | 1.6 | 3.2 | 0.00 | 0.00 | 0.00 | 84 | 1021.9 |
| 20260508100946 | 10 | 238 | 1.6 | 3.2 | 0.00 | 0.00 | 0.00 | 84 | 1021.9 |
| 20260508100446 | 10 | 238 | 0.0 | 3.2 | 0.00 | 0.00 | 0.00 | 83 | 1021.8 |
| 20260508095946 | 10 | 238 | 0.0 | 1.6 | 0.00 | 0.00 | 0.00 | 82 | 1021.8 |
| 20260508095446 | 10 | 238 | 1.6 | 3.2 | 0.00 | 0.00 | 0.00 | 82 | 1021.7 |
| 20260508094946 | 11 | 238 | 0.0 | 1.6 | 0.00 | 0.00 | 0.00 | 81 | 1021.6 |
| 20260508094446 | 11 | 238 | 0.0 | 3.2 | 0.00 | 0.00 | 0.00 | 80 | 1021.5 |
| 20260508093946 | 11 | 238 | 0.0 | 1.6 | 0.00 | 0.00 | 0.00 | 79 | 1021.3 |
| 20260508093446 | 11 | 238 | 0.0 | 0.0 | 0.00 | 0.00 | 0.00 | 79 | 1021.3 |
| 20260508092946 | 11 | 238 | 0.0 | 3.2 | 0.00 | 0.00 | 0.00 | 79 | 1021.1 |
| 20260508092446 | 11 | 238 | 0.0 | 1.6 | 0.00 | 0.00 | 0.00 | 78 | 1021.1 |
| 20260508091946 | 11 | 238 | 1.6 | 1.6 | 0.00 | 0.00 | 0.00 | 77 | 1021.1 |
| 20260508091446 | 12 | 238 | 1.6 | 3.2 | 0.00 | 0.00 | 0.00 | 76 | 1021.1 |
| 20260508090946 | 12 | 238 | 1.6 | 3.2 | 0.00 | 0.00 | 0.00 | 75 | 1021.0 |